[[{"header":{"parameterUnit":"m.s-1","parameterCategory":1,"la1":30.2991,"la2":30.254,"lo1":-89.0895,"lo2":-89.0444,"dy":0.0017,"dx":0.0017,"nx":28,"ny":28,"refTime":"2023-09-28T09:00:00:Z","depth":0,"parameterNumber":2,"parameterNumberName":"U-component_of_WINDS"},"data":[0,0,0,0,0,0,0,0,0,0,0,0,0,0,0,0,0,0,0,0,0,0,0,0,0,0,0,0,0,0,0,0,0,0,0,0,0,0,0,0,0,0,0,0,0,0,0,0,0,0,0,0,0,0,0,0,0,0,-5.4483,-5.4483,0,-5.4509,-5.4509,-5.4509,-5.4378,-5.4374,-5.437,-5.4367,-5.4396,-5.44,-5.4404,0,0,0,0,0,0,0,0,0,0,0,0,0,-5.4323,-5.4327,-5.4483,-5.4483,-5.4484,-5.4509,-5.4509,-5.4509,-5.4378,-5.4374,-5.4369,-5.4365,-5.4394,-5.44,-5.4405,0,0,0,0,0,0,0,0,0,0,0,0,0,-5.4376,-5.4328,-5.4483,-5.4421,-5.4416,-5.4509,-5.4509,-5.451,-5.4379,-5.4374,-5.4368,-5.4363,-5.4393,-5.4399,-5.4405,-5.456,0,0,-5.4425,-5.4428,0,0,0,0,0,0,0,0,-5.4373,-5.4382,-5.443,-5.4426,-5.442,-5.4434,-5.4463,-5.4526,-5.4381,-5.4393,-5.4367,-5.436,-5.4413,-5.4418,-5.4435,-5.4561,-5.4562,-5.4426,-5.443,-5.4433,-5.4434,0,0,0,0,0,0,0,-5.4369,-5.438,-5.4493,-5.4431,-5.4425,-5.4393,-5.4394,-5.4475,-5.4435,-5.4392,-5.4382,-5.4387,-5.441,-5.4429,-5.4435,-5.4563,-5.4426,-5.4431,-5.4435,-5.4438,-5.4818,-5.4823,0,0,0,0,0,0,-5.4374,-5.4378,-5.4492,-5.4494,-5.4382,-5.4401,-5.4402,-5.4435,-5.4434,-5.4428,-5.4392,-5.4381,-5.4421,-5.4428,-5.4436,-5.4617,-5.4432,-5.4439,-5.4442,-5.4811,-5.4819,-5.4826,0,0,0,0,0,0,-5.4371,-5.4385,-5.4491,-5.4433,-5.4444,-5.441,-5.4448,-5.4439,-5.4458,-5.4434,-5.4426,-5.4419,-5.4417,-5.4426,-5.453,-5.4616,-5.4441,-5.4447,-5.4804,-5.4814,-5.4822,-5.498,0,0,0,0,0,0,-5.4367,-5.4385,-5.4442,-5.4435,-5.4448,-5.4585,-5.4453,-5.4444,-5.447,-5.4455,-5.4458,-5.4452,-5.4413,-5.4521,-5.4536,-5.4622,-5.4452,-5.4796,-5.4808,-5.4819,-5.4967,-5.4994,-5.5016,0,0,0,0,0,-5.4361,-5.4486,-5.4446,-5.446,-5.4519,-5.459,-5.4597,-5.4548,-5.4477,-5.4535,-5.452,-5.4452,-5.4604,-5.4533,-5.4549,-5.4637,-5.4791,-5.4805,-5.4818,-5.4956,-5.4988,-5.5016,0,0,0,0,0,0,-5.4504,-5.4484,-5.4439,-5.4565,-5.458,-5.4567,-5.4639,-5.4584,-5.462,-5.4606,-5.4545,-5.4546,-5.4661,-5.4659,-5.458,-5.4787,-5.4685,-5.4703,-5.4784,-5.4815,-5.4839,-5.4837,-5.4458,0,0,0,0,0,-5.455,-5.4608,-5.4588,-5.4701,-5.4711,-5.4674,-5.4703,-5.4664,-5.4678,-5.4684,-5.4676,-5.4693,-5.4744,-5.4779,-5.4825,-5.4966,-5.4966,-5.5035,-5.506,-5.508,-5.5097,-5.5173,-5.5204,-5.4871,-5.4871,-5.4871,0,0,-5.4646,-5.4642,-5.4682,-5.4729,-5.4736,-5.48,-5.468,-5.4752,-5.4798,-5.4695,-5.4792,-5.4787,-5.4802,-5.4926,-5.4979,-5.4928,-5.5188,-5.5098,-5.5115,-5.512,-5.519,-5.5222,-5.525,-5.4881,-5.4879,-5.4878,0,0,-5.4852,-5.4855,-5.495,-5.496,-5.4972,-5.4947,-5.497,-5.4966,-5.4959,-5.5055,-5.4979,-5.5035,-5.5124,-5.5138,-5.5157,-5.5371,-5.5311,-5.5388,-5.5517,-5.5592,-5.5618,-5.5641,-5.5718,-5.5747,-5.5404,-5.5404,-5.5405,0,-5.497,-5.5061,-5.5006,-5.5083,-5.5106,-5.5015,-5.5112,-5.5124,-5.5152,-5.5171,-5.5112,-5.5223,-5.5227,-5.5353,-5.5405,-5.5423,-5.5449,-5.5387,-5.5618,-5.5641,-5.5661,-5.5735,-5.5764,-5.5414,-5.5413,-5.5412,-5.5411,0,-5.5205,-5.527,-5.5345,-5.5373,-5.5405,-5.5492,-5.5451,-5.5491,-5.545,-5.5432,-5.5532,-5.5533,-5.5578,-5.5605,-5.5566,-5.5727,-5.5694,-5.5628,-5.5524,-5.5703,-5.5771,-5.5799,-5.5427,-5.5424,-5.5421,-5.5419,0,0,-5.5501,-5.5499,-5.5528,-5.554,-5.5548,-5.5597,-5.568,-5.5724,-5.5759,-5.5782,-5.5851,-5.5929,-5.5869,-5.589,-5.5852,-5.5918,-5.6089,-5.5843,-5.5843,-5.589,-5.6268,-5.6318,-5.6351,-5.6049,-5.6054,-5.6058,-5.6267,0,-5.5704,-5.5845,-5.5799,-5.5942,-5.6002,-5.5917,-5.599,-5.6004,-5.5989,-5.6039,-5.6023,-5.608,-5.5995,-5.6008,-5.6069,-5.6055,-5.6164,-5.6039,-5.6114,-5.6118,-5.6114,-5.6386,-5.6439,-5.6635,-5.6293,-5.6297,-5.63,0,-5.5959,-5.5992,-5.6141,-5.614,-5.6163,-5.6229,-5.6266,-5.6314,-5.6328,-5.6313,-5.6339,-5.6287,-5.637,-5.6267,-5.6381,-5.6297,-5.6325,-5.6324,-5.633,-5.6336,-5.622,-5.64,-5.6697,-5.6727,-5.6341,-5.6338,-5.6335,0,-5.6161,-5.6242,-5.6342,-5.6356,-5.6356,-5.6405,-5.6408,-5.6416,-5.6446,-5.6479,-5.6498,-5.6541,-5.6564,-5.6599,-5.6561,-5.6489,-5.6682,-5.6575,-5.6673,-5.6675,-5.6718,-5.6716,-5.7024,-5.6736,-5.6735,-5.6735,-5.6734,0,-5.6393,-5.6488,-5.6433,-5.6495,-5.66,-5.6546,-5.6652,-5.6645,-5.6654,-5.6714,-5.6644,-5.6702,-5.6648,-5.6702,-5.6673,-5.6773,-5.6784,-5.6775,-5.6766,-5.6782,-5.6783,-5.6799,-5.6785,-5.6742,-5.6741,-5.6739,-5.6738,0,-5.6636,-5.6603,-5.6707,-5.67,-5.67,-5.6778,-5.6772,-5.683,-5.6811,-5.6888,-5.6903,-5.6874,-5.6933,-5.6899,-5.696,-5.6941,-5.7071,-5.7044,-5.7067,-5.7059,-5.716,-5.7152,-5.749,-5.7533,-5.7217,-5.722,-5.7222,0,-5.6786,-5.6857,-5.6858,-5.6893,-5.69,-5.6957,-5.6987,-5.6938,-5.6972,-5.6995,-5.7051,-5.7104,-5.7144,-5.7244,-5.7229,-5.7276,-5.725,-5.7365,-5.7256,-5.727,-5.7253,-5.7249,-5.7257,-5.7388,-5.7391,-5.7394,-5.7397,0,-5.7056,-5.7037,-5.7082,-5.7123,-5.7161,-5.719,-5.7214,-5.7247,-5.7199,-5.7241,-5.7301,-5.7333,-5.7395,-5.745,-5.7491,-5.7495,-5.7439,-5.7431,-5.7457,-5.7473,-5.7484,-5.748,-5.7127,-5.7424,-5.7421,-5.7419,-5.7417,-5.7416,-5.7258,-5.7317,-5.7328,-5.7381,-5.7394,-5.7419,-5.7473,-5.7461,-5.7509,-5.7556,-5.7525,-5.7596,-5.761,-5.7659,-5.7671,-5.7727,-5.768,-5.7717,-5.7726,-5.7736,-5.7751,-5.7475,-5.7734,-5.7733,-5.7732,-5.7732,-5.7731,0,-5.7525,-5.7527,-5.7577,-5.7613,-5.7656,-5.7598,-5.7622,-5.7662,-5.7726,-5.7743,-5.7785,-5.7855,-5.7908,-5.7898,-5.7946,-5.7994,-5.7969,-5.8008,-5.8004,-5.8007,-5.7789,-5.7762,-5.8027,-5.8027,-5.8027,-5.8027,-5.8027,-5.8027,-5.7668,-5.7767,-5.7749,-5.7854,-5.7856,-5.7925,-5.7944,-5.7967,-5.7981,-5.8062,-5.8106,-5.8098,-5.8105,-5.8154,-5.8201,-5.8197,-5.8219,-5.8267,-5.8254,-5.8051,-5.8022,-5.7994,-5.7969,-5.8272,-5.8273,-5.8467,-5.8469,-5.847]},{"header":{"parameterUnit":"m.s-1","parameterCategory":1,"la1":30.2991,"la2":30.254,"lo1":-89.0895,"lo2":-89.0444,"dy":0.0017,"dx":0.0017,"nx":28,"ny":28,"refTime":"2023-09-28T09:00:00:Z","depth":0,"parameterNumber":3,"parameterNumberName":"V-component_of_WINDS"},"data":[0,0,0,0,0,0,0,0,0,0,0,0,0,0,0,0,0,0,0,0,0,0,0,0,0,0,0,0,0,0,0,0,0,0,0,0,0,0,0,0,0,0,0,0,0,0,0,0,0,0,0,0,0,0,0,0,0,0,1.1778,1.1777,0,1.1701,1.17,1.1699,1.1709,1.171,1.1711,1.1712,1.1625,1.1622,1.1618,0,0,0,0,0,0,0,0,0,0,0,0,0,1.1927,1.1924,1.1778,1.1777,1.1776,1.1701,1.17,1.1699,1.1708,1.171,1.1712,1.1713,1.1626,1.1622,1.1618,0,0,0,0,0,0,0,0,0,0,0,0,0,1.1857,1.1923,1.1778,1.1772,1.1771,1.1701,1.17,1.1698,1.1708,1.171,1.1712,1.1714,1.1628,1.1623,1.1617,1.1547,0,0,1.1601,1.1599,0,0,0,0,0,0,0,0,1.1861,1.1851,1.1774,1.1772,1.1771,1.1717,1.172,1.1647,1.1708,1.1732,1.1713,1.1715,1.1653,1.1646,1.1627,1.1542,1.1539,1.1601,1.1598,1.1595,1.1594,0,0,0,0,0,0,0,1.1866,1.1855,1.1747,1.1772,1.1771,1.1771,1.1763,1.1707,1.1682,1.173,1.173,1.1721,1.1653,1.1632,1.1625,1.1537,1.1601,1.1596,1.1593,1.1591,1.1391,1.1389,0,0,0,0,0,0,1.1873,1.1859,1.1749,1.1745,1.1822,1.1767,1.1758,1.1732,1.1683,1.1678,1.172,1.1722,1.164,1.1631,1.1622,1.1536,1.1595,1.1591,1.1587,1.1393,1.139,1.1388,0,0,0,0,0,0,1.1876,1.1863,1.1753,1.1802,1.1788,1.1762,1.1733,1.1729,1.1709,1.1676,1.1671,1.1704,1.1642,1.163,1.1566,1.1533,1.1588,1.1583,1.1396,1.1392,1.1389,1.1362,0,0,0,0,0,0,1.1881,1.1864,1.1838,1.1801,1.1785,1.1699,1.1731,1.1726,1.1701,1.1703,1.1659,1.1654,1.1642,1.1574,1.1561,1.1526,1.1579,1.1398,1.1394,1.139,1.1366,1.1358,1.1352,0,0,0,0,0,1.1886,1.1832,1.1837,1.1824,1.1753,1.1697,1.1688,1.1678,1.1698,1.1671,1.165,1.1655,1.154,1.1567,1.1553,1.1516,1.14,1.1395,1.1391,1.1369,1.136,1.1352,0,0,0,0,0,0,1.1862,1.1827,1.1832,1.1765,1.1735,1.1699,1.1664,1.1669,1.1629,1.1633,1.162,1.161,1.1545,1.1525,1.1556,1.1445,1.1472,1.1464,1.1461,1.1452,1.1445,1.145,1.1575,0,0,0,0,0,1.185,1.181,1.1781,1.1724,1.1709,1.169,1.1665,1.1661,1.1627,1.1613,1.1588,1.1553,1.1509,1.148,1.1437,1.1364,1.1354,1.1332,1.1325,1.132,1.1312,1.1271,1.1261,1.1372,1.1372,1.1372,0,0,1.1822,1.1798,1.1773,1.1719,1.1694,1.1652,1.1678,1.1631,1.1599,1.1605,1.1544,1.1525,1.1485,1.1416,1.1385,1.1397,1.128,1.1314,1.1309,1.1304,1.1265,1.1254,1.1245,1.1369,1.1369,1.137,0,0,1.1749,1.1728,1.1679,1.1655,1.162,1.1608,1.1596,1.1561,1.1549,1.1489,1.1493,1.1453,1.1378,1.1349,1.1325,1.1246,1.1248,1.1232,1.1195,1.1155,1.1146,1.1139,1.1109,1.1098,1.1225,1.1225,1.1225,0,1.1718,1.1656,1.1652,1.1606,1.1581,1.159,1.1539,1.1515,1.1466,1.1448,1.1464,1.1371,1.1344,1.1269,1.125,1.1231,1.1215,1.1235,1.1149,1.1141,1.1133,1.1104,1.1093,1.1223,1.1224,1.1224,1.1224,0,1.162,1.1577,1.1541,1.1497,1.1469,1.142,1.1407,1.1379,1.1378,1.1364,1.1302,1.1272,1.1224,1.1206,1.1203,1.113,1.1139,1.1152,1.1178,1.1121,1.1093,1.1082,1.1221,1.1221,1.1222,1.1222,0,0,1.1525,1.1484,1.147,1.1451,1.1414,1.1379,1.1332,1.1288,1.1263,1.123,1.1188,1.1126,1.1138,1.1111,1.1105,1.1071,1.1009,1.1088,1.1087,1.1072,1.0925,1.0914,1.0901,1.1012,1.101,1.1009,1.0928,0,1.1448,1.1365,1.1362,1.1285,1.1245,1.1254,1.1212,1.1184,1.117,1.1133,1.1117,1.1072,1.1093,1.1077,1.1044,1.1023,1.0979,1.103,1.097,1.0968,1.0977,1.0887,1.0875,1.08,1.0917,1.0916,1.0914,0,1.1345,1.1313,1.1234,1.1204,1.1187,1.115,1.111,1.1075,1.1043,1.1035,1.1007,1.1007,1.0956,1.0987,1.0915,1.095,1.0926,1.0913,1.091,1.0901,1.0935,1.0874,1.0776,1.0764,1.0898,1.0899,1.09,0,1.1283,1.1219,1.1164,1.1147,1.1112,1.1085,1.1068,1.1039,1.1014,1.0978,1.0961,1.092,1.0896,1.0863,1.0851,1.0875,1.078,1.081,1.0769,1.077,1.0746,1.0747,1.064,1.0735,1.0735,1.0735,1.0736,0,1.1195,1.1145,1.1135,1.11,1.1046,1.1042,1.0987,1.0972,1.0946,1.0907,1.0913,1.0875,1.0864,1.0824,1.0815,1.0756,1.0746,1.0737,1.0734,1.0734,1.0735,1.0716,1.072,1.0732,1.0733,1.0734,1.0734,0,1.1113,1.1105,1.1045,1.1018,1.101,1.0971,1.0946,1.0912,1.0902,1.0853,1.0841,1.0822,1.0776,1.0763,1.0706,1.07,1.0631,1.0634,1.0642,1.0641,1.0601,1.0604,1.0475,1.0457,1.0567,1.0566,1.0565,0,1.1056,1.1019,1.099,1.0966,1.0949,1.091,1.0885,1.0881,1.0854,1.0817,1.0787,1.0743,1.0707,1.0633,1.0612,1.057,1.057,1.0529,1.0563,1.0565,1.0567,1.0568,1.0564,1.052,1.0519,1.0518,1.0518,0,1.0955,1.0954,1.0919,1.0884,1.0855,1.0825,1.0797,1.0777,1.0768,1.0738,1.0693,1.0665,1.061,1.0565,1.0523,1.0503,1.0508,1.0508,1.0496,1.0494,1.0499,1.0494,1.0621,1.0509,1.051,1.0511,1.0511,1.0512,1.0883,1.085,1.0825,1.0786,1.0766,1.074,1.0707,1.0694,1.0658,1.0614,1.0614,1.0564,1.0534,1.0478,1.0457,1.0417,1.0429,1.0412,1.0407,1.0402,1.0398,1.0509,1.0409,1.041,1.041,1.041,1.041,0,1.078,1.0766,1.0731,1.0693,1.0662,1.0675,1.0645,1.0618,1.0575,1.0549,1.0515,1.0463,1.042,1.0399,1.0356,1.0328,1.0329,1.0316,1.0316,1.0312,1.0391,1.0405,1.0316,1.0316,1.0316,1.0316,1.0316,1.0316,1.0723,1.0669,1.0665,1.0601,1.0586,1.054,1.0522,1.0498,1.0477,1.042,1.0386,1.0374,1.0348,1.0304,1.0265,1.026,1.0242,1.0228,1.0223,1.0297,1.0306,1.0315,1.0328,1.0225,1.0225,1.0148,1.0147,1.0146]}]]